Location: Hungerford
(51.4167°N, 1.5167°W)
Time: 08:28:57
(UTC+00:00)

Cosmos 1048 Rocket - Pass Details

Date: 24 January 2021
Orbit: 744 x 791 km, 74.0° (Epoch: 24 February)

Event Time Altitude Azimuth Distance (km) Brightness Sun altitude
Rises 21:07:17 0° 325° (NW) 3,197 7.9 -40.6°
Reaches altitude 10° 21:10:06 10° 311° (NW) 2,270 7.0 -41.0°
Enters shadow 21:11:31 16° 298° (WNW) 1,906 6.6 -41.2°
